This is the latest recevied weather packets stored in our database for station/object N0HOT. If no packets are shown the sender has not sent any weather packets the latest 10 day(s).
| Time | Temp. | Humidity | Pressure | Rain* | Wind** | Luminosity | Snow |
|---|---|---|---|---|---|---|---|
| 1777432656 | 11.11° C | 48% | 1015.6 hPa | 0 mm | - | 0 W/m² | - |
| 1777432353 | 11.67° C | 48% | 1015.6 hPa | 0 mm | - | 0 W/m² | - |
| 1777432052 | 11.67° C | 48% | 1016 hPa | 0 mm | - | 0 W/m² | - |
| 1777431748 | 11.67° C | 47% | 1016 hPa | 0 mm | - | 0 W/m² | - |
| 1777429316 | 12.22° C | 46% | 1016 hPa | 0 mm | - | 0 W/m² | - |
| 1777428100 | 12.78° C | 46% | 1015.6 hPa | 0 mm | - | 0 W/m² | - |
| 1777427796 | 12.78° C | 46% | 1015.3 hPa | 0 mm | - | 0 W/m² | - |
| 1777426887 | 12.78° C | 45% | 1015 hPa | 0 mm | - | 0 W/m² | - |
| 1777426584 | 12.78° C | 46% | 1015.3 hPa | 0 mm | - | 0 W/m² | - |
| 1777423847 | 13.33° C | 44% | 1014.3 hPa | 0 mm | - | 2 W/m² | - |
| 1777423543 | 13.89° C | 44% | 1014.3 hPa | 0 mm | - | 4 W/m² | - |
| 1777420504 | 14.44° C | 40% | 1013.6 hPa | 0 mm | - | 36 W/m² | - |
| 1777419896 | 14.44° C | 39% | 1013.2 hPa | 0 mm | - | 90 W/m² | - |
| 1777417774 | 15° C | 38% | 1013.2 hPa | 0 mm | - | 113 W/m² | - |
| 1777415649 | 15.56° C | 35% | 1013.2 hPa | 0 mm | - | 168 W/m² | - |
| 1777414738 | 15.56° C | 38% | 1012.8 hPa | 0 mm | - | 396 W/m² | - |
| 1777414134 | 15.56° C | 38% | 1012.8 hPa | 0 mm | - | 395 W/m² | - |
| 1777413525 | 15.56° C | 38% | 1012.8 hPa | 0 mm | - | 318 W/m² | - |
| 1777413222 | 15.56° C | 37% | 1012.8 hPa | 0 mm | - | 224 W/m² | - |
| 1777412009 | 15.56° C | 40% | 1012.8 hPa | 0 mm | - | 323 W/m² | - |
| 1777407767 | 15.56° C | 41% | 1013.9 hPa | 0 mm | - | 532 W/m² | - |
| 1777407463 | 15.56° C | 43% | 1013.9 hPa | 0 mm | - | 419 W/m² | - |
| 1777407158 | 15.56° C | 41% | 1013.9 hPa | 0 mm | - | 594 W/m² | - |
| 1777405338 | 15.56° C | 42% | 1014.3 hPa | 0 mm | - | 531 W/m² | - |
| 1777405033 | 15.56° C | 41% | 1014.3 hPa | 0 mm | - | 492 W/m² | - |
* Rain latest hour (hover to see other rain measurements)
** Current wind speed in m/s (hover to see current wind gust speed)